CZ-6A DEB, 56684

Orbit data source: Space-Track

CZ-6A DEB, 56684 is space debris in SSO originally from a launch on Fri, 11 Nov 2022 UTC launched from the Taiyaun Space Center, China (TSC). Debris objects in space refer to the collection of defunct objects orbiting the Earth. Examples of debris include non-operational satellites, rocket bodies, and fragments generated from explosions, collisions, or faulty payload assembly.

Loading next visibility...
Identifier
56684, 2022-151AHL
Orbit
SSO
Country
Flag of CNCN / PRC
Related business
Manufacturer
SAST
Mission
Spacecraft
Bus & Motor
Unknown
Mass
Unknown
Launch date (UTC)
2022-11-11 (3 years ago)
Launch vehicle
Unknown
Launch site
Taiyaun Space Center, China (TSC)
Object type
Payload
Rocket body
Debris
Shape & HBR
Unknown shape, 0.1 m
Radar Cross Section
Small (<0.1 m²)

Expand to show TLE details & history
Last TLE update: 2 days ago

TLE from 2 days ago
0 CZ-6A DEB
1 56684U 22151AHL 26128.66919982  .00001558  00000-0  10192-2 0  9993
2 56684  98.9167 108.7010 0105828 155.6310 204.9912 14.00929780153289
Epoch: 2026-05-08T16:03Z
TLE epoch observation values (Epoch: 2026-05-08T16:03:38.864Z)
Latitude
0.00004°
Longitude
1.29139°
Altitude
963.338 km
Speed
7.335 km/s
True Right ascension
07h 14m 48s
True Declination
0° 00' 00"
Sunlit
Object was in daylight at epoch
Visualization orbit readout
Latitude
Unknown
Longitude
Unknown
Altitude
Unknown
Speed
Unknown
Apparent Right ascension
Unknown
Apparent Declination
Unknown
Sunlit
N/A
Visualization observer readout
Local Sidereal Time
19:53:20
Azimuth
Unknown
Elevation
Unknown
Doppler factor
Unknown
Orbital elements
Apogee altitude
964.665 km
Perigee altitude
810.877 km
Semi-major axis
7,265.908 km
Eccentricity
0.01058
Inclination
98.9167°
RAAN
108.701°
Arg. of periapsis
155.631°
True anomaly
204.48494°
Mean anomaly
204.9912°
Eccentric anomaly
204.73747°
Mean motion
3.50436 °/min
Orbital period
102.73 mins
BSTAR
0.0010192
Loading maneuver chart data...
Computing Atmospheric mass density...
Loading historical data...
Loading historical data...
Loading historical data...
Loading historical data...
Loading historical data...
Loading historical data...
Loading historical data...

Documentation

Showing up to 5 results
|